Flag for Australia Weather past 2 weeks in Cairns, Queensland, Australia

73 °F

Passing clouds.

Feels Like: 72 °F
Forecast: 74 / 87 °F
Wind: No wind

Location: Cairns Airport

Current Time: Dec 1, 2015 at 4:58:58 AM

Latest Report: Dec 1, 2015 at 4:00 AM

Visibility: N/A

Pressure: 29.86 "Hg

Humidity: 89%

Dew point: 70 °F

Location of CairnsLocation

Historic Weather in Cairns — Graph


Cairns temperature yesterday

Maximum temperature yesterday: 86 °F (at 10:00 AM)
Minimum temperature yesterday: 72 °F (at 4:30 AM)
Average temperature yesterday: 79 °F

Past Weeks' High & Low Weather Summary

High90 °F (Nov 18, 12:00 PM)100% (Nov 22, 6:30 AM)30.01 "Hg (Nov 22, 6:30 AM)
Low70 °F (Nov 20, 2:30 AM)35% (Nov 19, 2:00 PM)29.74 "Hg (Nov 16, 4:00 AM)
Average80 °F76%29.87 "Hg
* Reported Nov 16 4:00 AM — Dec 1 4:00 AM, Cairns, Weather by CustomWeather, © 2015

Note: Actual official high and low records may vary slightly from our data, if they occured in-between our weather recording intervals... More about our weather records


Cairns weather history for previous 24 hours

Time TempWeatherWind HumidityBarometerVisibility
4:00 AM
Tue, Dec 1
73 °FPassing clouds.No wind89%29.86 "HgN/A
3:00 AM75 °FPassing clouds.7 mph83%29.83 "HgN/A
2:30 AM75 °FPassing clouds.1 mph83%29.83 "HgN/A
2:00 AM75 °FPassing clouds.8 mph83%29.83 "HgN/A
1:30 AM75 °FClear.1 mph83%29.86 "HgN/A
1:00 AM75 °FClear.1 mph83%29.86 "HgN/A
12:30 AM77 °FPartly cloudy.6 mph79%29.86 "HgN/A
12:00 AM77 °FPassing clouds.8 mph79%29.89 "HgN/A
11:30 PM
Mon, Nov 30
75 °FPassing clouds.No wind83%29.89 "HgN/A
11:00 PM77 °FPassing clouds.6 mph79%29.89 "HgN/A
10:30 PM77 °FPassing clouds.7 mph83%29.89 "HgN/A
10:00 PM77 °FPassing clouds.6 mph79%29.89 "HgN/A
9:00 PM77 °FPassing clouds.6 mph79%29.89 "HgN/A
8:30 PM77 °FPassing clouds.No wind79%29.86 "HgN/A
8:00 PM79 °FPassing clouds.6 mph74%29.86 "HgN/A
7:30 PM79 °FPassing clouds.6 mph74%29.86 "HgN/A
7:00 PM81 °FPassing clouds.5 mph70%29.83 "HgN/A
6:30 PM81 °FPartly sunny.6 mph74%29.83 "HgN/A
6:00 PM82 °FPassing clouds.7 mph70%29.83 "HgN/A
5:30 PM82 °FPassing clouds.7 mph70%29.83 "HgN/A
5:00 PM82 °FPassing clouds.8 mph70%29.80 "HgN/A
4:30 PM82 °FPassing clouds.9 mph70%29.83 "HgN/A
4:00 PM84 °FPassing clouds.9 mph66%29.83 "HgN/A
3:30 PM84 °FPassing clouds.10 mph62%29.83 "HgN/A
3:00 PM86 °FPassing clouds.10 mph62%29.83 "HgN/A
2:30 PM86 °FScattered clouds.10 mph59%29.83 "HgN/A
2:00 PM86 °FScattered clouds.10 mph62%29.83 "HgN/A
1:30 PM86 °FScattered clouds.10 mph62%29.86 "HgN/A
1:00 PM86 °FScattered clouds.13 mph62%29.86 "HgN/A
12:00 PM86 °FScattered clouds.12 mph62%29.86 "HgN/A
11:00 AM86 °FScattered clouds.12 mph62%29.89 "HgN/A
10:00 AM86 °FScattered clouds.10 mph62%29.89 "HgN/A
9:30 AM84 °FPartly sunny.8 mph66%29.92 "HgN/A
9:00 AM82 °FPartly sunny.6 mph70%29.92 "HgN/A
8:30 AM82 °FScattered clouds.6 mph74%29.89 "HgN/A
8:00 AM81 °FScattered clouds.7 mph74%29.89 "HgN/A
7:00 AM79 °FBroken clouds.3 mph84%29.86 "HgN/A
6:30 AM75 °FBroken clouds.5 mph89%29.83 "HgN/A
6:00 AM75 °FPartly sunny.6 mph83%29.83 "HgN/A
5:30 AM73 °FMild.No wind94%29.80 "HgN/A
5:00 AM73 °FPassing clouds.1 mph94%29.80 "HgN/A
4:30 AM72 °FPassing clouds.No wind100%29.80 "HgN/A
4:00 AM73 °FClear.No wind94%29.80 "HgN/A
Weather by CustomWeather, © 2015

See weather overviewHow to use our weather pages